GW2412 Weather Reports


Display with metric or nautical units.
time (UTC)temp
F
wind
direction
speed
MPH
gust
MPH
rain 1hr
in
rain 24hr
in
rain mn
in
humidity
%
barometer
mb
20260502130519 52 59 10.0 17.0 0.00 0.00 0.00 1 1019.5
20260502123516 51 37 13.0 17.0 0.00 0.00 0.00 1 1018.9
20260502123045 51 31 12.0 20.0 0.00 0.00 0.00 1 1018.9
20260502122515 51 46 14.0 22.0 0.00 0.00 0.00 1 1018.7
20260502122016 51 39 16.0 22.0 0.00 0.00 0.00 1 1018.6
20260502121551 50 32 17.0 21.0 0.00 0.00 0.00 1 1018.8
20260502121017 50 31 15.0 20.0 0.00 0.00 0.00 1 1018.6
20260502120517 50 32 15.0 24.0 0.00 0.00 0.00 1 1018.6
20260502115519 50 43 17.0 25.0 0.00 0.00 0.00 1 1018.4
20260502115017 50 36 18.0 25.0 0.00 0.00 0.00 1 1018.1
20260502114554 50 51 17.0 25.0 0.00 0.00 0.00 1 1018.4
20260502114017 50 44 19.0 25.0 0.00 0.00 0.00 1 1018.3
20260502113517 50 54 19.0 25.0 0.00 0.00 0.00 1 1018.2
20260502113056 50 50 19.0 27.0 0.00 0.00 0.00 1 1018.1
20260502112514 51 64 18.0 29.0 0.00 0.00 0.00 1 1018.1
20260502112016 51 56 20.0 29.0 0.00 0.00 0.00 1 1018.0
20260502111554 51 55 21.0 29.0 0.00 0.00 0.00 1 1017.8
20260502111056 51 47 22.0 29.0 0.00 0.00 0.00 1 1017.9
20260502110515 51 45 22.0 28.0 0.00 0.00 0.00 1 1017.6
20260502110105 51 46 20.0 28.0 0.00 0.00 0.00 1 1017.7
20260502105529 51 40 21.0 28.0 0.00 0.00 0.00 1 1017.4
20260502105015 51 48 20.0 28.0 0.00 0.00 0.00 1 1017.6
20260502104553 51 45 20.0 28.0 0.00 0.00 0.00 1 1017.4
20260502104029 51 36 20.0 28.0 0.00 0.00 0.00 1 1017.4
20260502103518 51 55 19.0 26.0 0.00 0.00 0.00 1 1017.4
20260502103057 51 43 18.0 24.0 0.00 0.00 0.00 1 1017.3
20260502102517 51 35 19.0 24.0 0.00 0.00 0.00 1 1017.4
20260502102019 51 58 18.0 25.0 0.00 0.00 0.00 1 1017.3
20260502101819 51 56 16.0 25.0 0.00 0.00 0.00 1 1017.2
20260502101019 52 42 17.0 22.0 0.00 0.00 0.00 1 1017.1
20260502100518 52 57 15.0 24.0 0.00 0.00 0.00 1 1017.2
20260502091014 50 339 5.0 11.0 0.00 0.00 0.00 1 1016.4
20260502090513 50 336 8.0 12.0 0.00 0.00 0.00 1 1016.3
20260502071018 48 327 5.0 9.0 0.00 0.00 0.00 1 1016.4
20260502070527 48 338 4.0 10.0 0.00 0.00 0.00 1 1016.5
20260502070057 49 326 4.0 9.0 0.00 0.00 0.00 1 1016.4
20260502065513 50 338 4.0 10.0 0.00 0.00 0.00 1 1016.5
20260502065016 49 324 7.0 10.0 0.00 0.00 0.00 1 1016.2
20260502064545 48 336 3.0 10.0 0.00 0.00 0.00 1 1016.2
20260502064013 48 338 5.0 10.0 0.00 0.00 0.00 1 1016.3
20260502063517 46 344 6.0 10.0 0.00 0.00 0.00 1 1016.3
20260502063045 45 344 4.0 8.0 0.00 0.00 0.00 1 1016.2
20260502062515 45 355 4.0 6.0 0.00 0.00 0.00 1 1016.2
20260502062017 45 355 5.0 8.0 0.00 0.00 0.00 1 1016.3
20260502061543 45 360 5.0 8.0 0.00 0.00 0.00 1 1016.2
20260502061014 45 360 5.0 8.0 0.00 0.00 0.00 1 1016.4
20260502060513 45 346 4.0 9.0 0.00 0.00 0.00 1 1016.3
20260502060040 46 360 7.0 10.0 0.00 0.00 0.00 1 1016.3
20260502055514 46 344 8.0 10.0 0.00 0.00 0.00 1 1016.3
20260502055014 47 325 7.0 11.0 0.00 0.00 0.00 1 1016.2
20260502054540 46 336 9.0 11.0 0.00 0.00 0.00 1 1016.3
20260502054013 45 317 9.0 11.0 0.00 0.00 0.00 1 1016.3
20260502053515 46 314 9.0 12.0 0.00 0.00 0.00 1 1016.5
20260502053038 47 336 10.0 12.0 0.00 0.00 0.00 1 1016.4
20260502052517 48 337 10.0 11.0 0.00 0.00 0.00 1 1016.3
20260502052028 48 333 10.0 11.0 0.00 0.00 0.00 1 1016.3
20260502051546 48 335 10.0 11.0 0.00 0.00 0.00 1 1016.4
20260502051007 49 327 9.0 12.0 0.00 0.00 0.00 1 1016.4
20260502050541 50 342 10.0 13.0 0.00 0.00 0.00 1 1016.3
20260502050053 50 344 11.0 13.0 0.00 0.00 0.00 1 1016.3
20260502045518 50 348 10.0 12.0 0.00 0.00 0.00 1 1016.2
20260502045019 50 340 9.0 10.0 0.00 0.00 0.00 1 1016.2
20260502044552 51 346 8.0 9.0 0.00 0.00 0.00 1 1016.3
20260502044016 54 319 7.0 10.0 0.00 0.00 0.00 1 1016.1
20260502043518 53 295 6.0 10.0 0.00 0.00 0.00 1 1016.1
20260502043059 53 307 8.0 10.0 0.00 0.00 0.00 1 1016.2
20260502042519 53 313 7.0 9.0 0.00 0.00 0.00 1 1016.1
20260502042021 53 308 8.0 10.0 0.00 0.00 0.00 1 1016.1
20260502041550 52 308 7.0 10.0 0.00 0.00 0.00 1 1016.1
20260502041016 51 304 6.0 9.0 0.00 0.00 0.00 1 1016.2
20260502040558 51 295 6.0 9.0 0.00 0.00 0.00 1 1016.2
20260502040048 51 288 7.0 9.0 0.00 0.00 0.00 1 1016.3
20260502035514 52 315 2.0 4.0 0.00 0.00 0.00 1 1016.1
20260502035013 53 315 0.0 4.0 0.00 0.00 0.00 1 1015.9
20260502034547 53 345 2.0 5.0 0.00 0.00 0.00 1 1016.0
20260502034019 54 9 4.0 5.0 0.00 0.00 0.00 1 1015.9
20260502033515 54 277 4.0 9.0 0.00 0.00 0.00 1 1015.9
20260502033054 55 296 5.0 9.0 0.00 0.00 0.00 1 1015.8
20260502032516 52 277 5.0 7.0 0.00 0.00 0.00 1 1015.8
20260502032015 53 282 5.0 9.0 0.00 0.00 0.00 1 1015.6
20260502031551 53 250 7.0 9.0 0.00 0.00 0.00 1 1015.7
20260502031016 54 292 4.0 7.0 0.00 0.00 0.00 1 1015.6
20260502030514 55 283 4.0 7.0 0.00 0.00 0.00 1 1015.5
20260502030053 55 260 4.0 7.0 0.00 0.00 0.00 1 1015.4
20260502025517 56 285 5.0 8.0 0.00 0.00 0.00 1 1015.2
20260502025016 57 279 7.0 8.0 0.00 0.00 0.00 1 1015.2
20260502024543 57 275 6.0 9.0 0.00 0.00 0.00 1 1015.3
20260502024016 58 270 6.0 9.0 0.00 0.00 0.00 1 1015.3
20260502023523 59 275 7.0 9.0 0.00 0.00 0.00 1 1015.2
20260502023109 59 263 6.0 8.0 0.00 0.00 0.00 1 1015.3
20260502022519 60 263 5.0 8.0 0.00 0.00 0.00 1 1015.2
20260502022019 61 263 6.0 8.0 0.00 0.00 0.00 1 1015.2
20260502021619 62 250 6.0 9.0 0.00 0.00 0.00 1 1015.3
20260502021020 63 247 7.0 9.0 0.00 0.00 0.00 1 1015.3
20260502020519 64 263 7.0 11.0 0.00 0.00 0.00 1 1015.2
20260502020108 64 252 8.0 11.0 0.00 0.00 0.00 1 1015.2
20260502015522 65 254 9.0 11.0 0.00 0.00 0.00 1 1015.2
20260502015021 65 247 9.0 11.0 0.00 0.00 0.00 1 1015.1
20260502014616 66 250 8.0 14.0 0.00 0.00 0.00 1 1015.0
20260502014019 67 246 10.0 15.0 0.00 0.00 0.00 1 1015.0
20260502013524 67 238 12.0 17.0 0.00 0.00 0.00 1 1015.0
20260502013108 68 237 13.0 18.0 0.00 0.00 0.00 1 1014.9
20260502012519 68 218 13.0 19.0 0.00 0.00 0.00 1 1014.8
20260502012027 69 239 15.0 19.0 0.00 0.00 0.00 1 1014.9
20260502011609 69 226 13.0 19.0 0.00 0.00 0.00 1 1015.0
20260502011016 70 209 14.0 19.0 0.00 0.00 0.00 1 1014.9
20260502010529 70 241 13.0 17.0 0.00 0.00 0.00 1 1015.1
20260502010100 70 239 8.0 12.0 0.00 0.00 0.00 1 1015.1
20260502005516 70 239 8.0 12.0 0.00 0.00 0.00 1 1015.2
20260502005028 71 245 5.0 9.0 0.00 0.00 0.00 1 1015.1
20260502004604 70 256 4.0 10.0 0.00 0.00 0.00 1 1015.2
20260502004019 70 255 5.0 14.0 0.00 0.00 0.00 1 1015.2
20260502003516 70 226 7.0 14.0 0.00 0.00 0.00 1 1015.3
20260502003050 71 258 7.0 12.0 0.00 0.00 0.00 1 1015.5
20260502002517 71 265 8.0 12.0 0.00 0.00 0.00 1 1015.5
20260502002017 71 261 3.0 14.0 0.00 0.00 0.00 1 1015.5
20260502001553 70 285 5.0 14.0 0.00 0.00 0.00 1 1015.6
20260502001017 70 286 8.0 13.0 0.00 0.00 0.00 1 1015.6
20260502000519 70 253 5.0 11.0 0.00 0.00 0.00 1 1015.6
20260502000116 70 222 4.0 13.0 0.00 0.00 0.00 1 1015.7
20260501235520 70 265 9.0 17.0 0.00 0.00 0.00 1 1015.8
20260501235016 70 252 11.0 17.0 0.00 0.00 0.00 1 1015.8
20260501234551 70 244 5.0 15.0 0.00 0.00 0.00 1 1015.8
20260501234014 70 248 9.0 18.0 0.00 0.00 0.00 1 1015.9
20260501233515 70 281 13.0 18.0 0.00 0.00 0.00 1 1015.9
20260501233051 70 316 9.0 14.0 0.00 0.00 0.00 1 1015.8
20260501232516 69 323 4.0 14.0 0.00 0.00 0.00 1 1015.8
20260501232020 70 318 5.0 11.0 0.00 0.00 0.00 1 1015.9
20260501231552 70 317 8.0 14.0 0.00 0.00 0.00 1 1016.0
20260501231029 70 235 8.0 14.0 0.00 0.00 0.00 1 1016.1
20260501230526 69 273 8.0 17.0 0.00 0.00 0.00 1 1016.1
20260501230100 69 287 12.0 17.0 0.00 0.00 0.00 1 1016.0
20260501225520 69 297 11.0 17.0 0.00 0.00 0.00 1 1016.1
20260501225019 70 267 7.0 18.0 0.00 0.00 0.00 1 1016.3
20260501224606 70 304 11.0 18.0 0.00 0.00 0.00 1 1016.0
20260501224021 70 355 8.0 13.0 0.00 0.00 0.00 1 1016.3
20260501223521 70 281 8.0 18.0 0.00 0.00 0.00 1 1016.4
20260501223052 69 231 8.0 18.0 0.00 0.00 0.00 1 1016.3
20260501222520 69 240 10.0 19.0 0.00 0.00 0.00 1 1016.4
20260501222021 69 273 14.0 19.0 0.00 0.00 0.00 1 1016.5
20260501221545 69 277 8.0 15.0 0.00 0.00 0.00 1 1016.5
20260501221015 69 262 8.0 19.0 0.00 0.00 0.00 1 1016.5
20260501220525 69 242 8.0 19.0 0.00 0.00 0.00 1 1016.5
20260501215516 69 262 12.0 19.0 0.00 0.00 0.00 1 1016.7
20260501215016 69 290 13.0 24.0 0.00 0.00 0.00 1 1016.7
20260501214555 69 244 5.0 23.0 0.00 0.00 0.00 1 1016.8
20260501214017 69 272 15.0 20.0 0.00 0.00 0.00 1 1016.8
20260501213517 69 276 8.0 18.0 0.00 0.00 0.00 1 1016.7
20260501213104 69 250 6.0 14.0 0.00 0.00 0.00 1 1016.8
20260501212520 69 286 7.0 19.0 0.00 0.00 0.00 1 1016.8
20260501212037 69 250 8.0 19.0 0.00 0.00 0.00 1 1016.8
20260501211556 68 331 10.0 17.0 0.00 0.00 0.00 1 1017.0
20260501211018 68 269 9.0 21.0 0.00 0.00 0.00 1 1017.1
20260501210516 69 237 16.0 21.0 0.00 0.00 0.00 1 1017.0
20260501210513 69 313 10.0 17.0 0.00 0.00 0.00 1 1017.0
20260501205518 69 261 9.0 17.0 0.00 0.00 0.00 1 1017.0
20260501205021 69 272 9.0 19.0 0.00 0.00 0.00 1 1017.0
20260501204609 69 292 15.0 19.0 0.00 0.00 0.00 1 1017.0
20260501204021 68 271 6.0 22.0 0.00 0.00 0.00 1 1017.0
20260501203522 68 255 17.0 22.0 0.00 0.00 0.00 1 1017.0
20260501203100 68 270 5.0 18.0 0.00 0.00 0.00 1 1017.1
20260501202520 68 298 10.0 18.0 0.00 0.00 0.00 1 1017.1
20260501202022 68 295 11.0 18.0 0.00 0.00 0.00 1 1017.1
20260501201607 68 238 9.0 21.0 0.00 0.00 0.00 1 1017.1
20260501201023 68 247 12.0 21.0 0.00 0.00 0.00 1 1017.2
20260501200516 67 292 6.0 20.0 0.00 0.00 0.00 1 1017.2
20260501200058 68 284 12.0 20.0 0.00 0.00 0.00 1 1017.2
20260501195521 68 254 9.0 16.0 0.00 0.00 0.00 1 1017.2
20260501195021 69 279 8.0 20.0 0.00 0.00 0.00 1 1017.3
20260501194604 68 254 14.0 20.0 0.00 0.00 0.00 1 1017.3
20260501194021 68 318 10.0 20.0 0.00 0.00 0.00 1 1017.3
20260501193521 67 211 11.0 21.0 0.00 0.00 0.00 1 1017.3
20260501193103 67 251 10.0 24.0 0.00 0.00 0.00 1 1017.5
20260501192523 67 231 17.0 24.0 0.00 0.00 0.00 1 1017.6
20260501192020 67 332 11.0 24.0 0.00 0.00 0.00 1 1017.5
20260501191601 67 277 15.0 24.0 0.00 0.00 0.00 1 1017.4
20260501191017 66 317 11.0 21.0 0.00 0.00 0.00 1 1017.6
20260501190520 67 290 13.0 17.0 0.00 0.00 0.00 1 1017.7
20260501190054 66 218 7.0 18.0 0.00 0.00 0.00 1 1017.7
20260501185518 67 225 10.0 18.0 0.00 0.00 0.00 1 1017.7
20260501185020 67 360 13.0 19.0 0.00 0.00 0.00 1 1017.7
20260501184546 66 232 11.0 22.0 0.00 0.00 0.00 1 1017.8
20260501184014 66 243 17.0 21.0 0.00 0.00 0.00 1 1017.8
20260501183516 66 266 14.0 20.0 0.00 0.00 0.00 1 1017.8
20260501183054 66 206 5.0 12.0 0.00 0.00 0.00 1 1017.8
20260501182516 65 161 5.0 12.0 0.00 0.00 0.00 1 1017.9
20260501182019 65 224 2.0 18.0 0.00 0.00 0.00 1 1017.9
20260501181551 64 200 9.0 18.0 0.00 0.00 0.00 1 1018.0
20260501181016 65 234 10.0 17.0 0.00 0.00 0.00 1 1017.9
20260501180516 65 228 11.0 17.0 0.00 0.00 0.00 1 1017.9
20260501180050 64 247 4.0 16.0 0.00 0.00 0.00 1 1018.1
20260501175515 64 333 11.0 16.0 0.00 0.00 0.00 1 1018.1
20260501175017 64 246 8.0 19.0 0.00 0.00 0.00 1 1018.1
20260501174551 64 259 13.0 19.0 0.00 0.00 0.00 1 1018.0
20260501174014 64 232 12.0 21.0 0.00 0.00 0.00 1 1018.2
20260501173520 64 254 15.0 21.0 0.00 0.00 0.00 1 1018.1
20260501173110 63 289 7.0 19.0 0.00 0.00 0.00 1 1018.3
20260501172527 64 287 9.0 19.0 0.00 0.00 0.00 1 1018.4
20260501172022 64 287 10.0 20.0 0.00 0.00 0.00 1 1018.4
20260501171554 64 261 11.0 19.0 0.00 0.00 0.00 1 1018.3
20260501171017 64 292 14.0 21.0 0.00 0.00 0.00 1 1018.4
20260501170514 64 273 12.0 21.0 0.00 0.00 0.00 1 1018.4
20260501170035 63 279 12.0 19.0 0.00 0.00 0.00 1 1018.5
20260501165514 64 257 12.0 18.0 0.00 0.00 0.00 1 1018.4
20260501165014 63 306 11.0 18.0 0.00 0.00 0.00 1 1018.4
20260501164537 63 246 8.0 17.0 0.00 0.00 0.00 1 1018.3
20260501164017 63 273 11.0 17.0 0.00 0.00 0.00 1 1018.3
20260501163515 63 242 12.0 17.0 0.00 0.00 0.00 1 1018.4
20260501163040 63 240 13.0 17.0 0.00 0.00 0.00 1 1018.3
20260501162514 63 238 10.0 15.0 0.00 0.00 0.00 1 1018.4
20260501162014 63 263 8.0 15.0 0.00 0.00 0.00 1 1018.3
20260501161541 62 229 8.0 14.0 0.00 0.00 0.00 1 1018.3
20260501161016 62 244 8.0 15.0 0.00 0.00 0.00 1 1018.2
20260501160513 61 272 9.0 15.0 0.00 0.00 0.00 1 1018.3
20260501160042 61 251 8.0 13.0 0.00 0.00 0.00 1 1018.4
20260501155517 61 255 9.0 13.0 0.00 0.00 0.00 1 1018.5
20260501155020 60 259 9.0 12.0 0.00 0.00 0.00 1 1018.4
20260501154550 59 209 7.0 10.0 0.00 0.00 0.00 1 1018.4
20260501154016 59 246 7.0 9.0 0.00 0.00 0.00 1 1018.6
20260501153514 58 249 6.0 10.0 0.00 0.00 0.00 1 1018.4
20260501153039 58 214 4.0 8.0 0.00 0.00 0.00 1 1018.4
20260501152528 57 243 6.0 9.0 0.00 0.00 0.00 1 1018.4
20260501152019 56 236 5.0 11.0 0.00 0.00 0.00 1 1018.3
20260501151554 56 224 8.0 11.0 0.00 0.00 0.00 1 1018.6
20260501151012 56 240 7.0 11.0 0.00 0.00 0.00 1 1018.5
20260501150522 55 231 7.0 9.0 0.00 0.00 0.00 1 1018.5
20260501150058 55 225 7.0 10.0 0.00 0.00 0.00 1 1018.3
20260501145509 54 231 7.0 10.0 0.00 0.00 0.00 1 1018.4
20260501145022 54 207 7.0 10.0 0.00 0.00 0.00 1 1018.2
20260501144622 54 232 5.0 9.0 0.00 0.00 0.00 1 1018.3
20260501144021 54 233 6.0 9.0 0.00 0.00 0.00 1 1018.5
20260501143521 53 258 5.0 8.0 0.00 0.00 0.00 1 1018.4
20260501143114 53 226 5.0 8.0 0.00 0.00 0.00 1 1018.4
20260501142520 52 227 5.0 7.0 0.00 0.00 0.00 1 1018.3
20260501142021 52 231 5.0 8.0 0.00 0.00 0.00 1 1018.4
20260501141610 51 236 6.0 9.0 0.00 0.00 0.00 1 1018.4